owner,sensor,date,latitude,longitude,vertical_datum,wind_speed,wind_to_direction,wind_speed_of_gust,qcFlag 
COMPS,ioos:station:USF.COMPS:ARP:1,2019-08-01T00:54:00,28.4330,-82.6670,10.0,2.08,186.88,4.9,'11111222,11111222,11111222' 
COMPS,ioos:station:USF.COMPS:ARP:1,2019-08-01T01:54:00,28.4330,-82.6670,10.0,2.07,166.16,4.6,'11111222,11111222,11111222' 
COMPS,ioos:station:USF.COMPS:ARP:1,2019-08-01T02:54:00,28.4330,-82.6670,10.0,1.29,273.64,1.86,'11111222,11111222,11111222' 
COMPS,ioos:station:USF.COMPS:ARP:1,2019-08-01T03:54:00,28.4330,-82.6670,10.0,1.66,76.18,2.35,'11111222,11111222,11111222' 
COMPS,ioos:station:USF.COMPS:ARP:1,2019-08-01T04:54:00,28.4330,-82.6670,10.0,1.6,246.78,2.84,'11111222,11111222,11111222' 
COMPS,ioos:station:USF.COMPS:ARP:1,2019-08-01T05:54:00,28.4330,-82.6670,10.0,1.53,111.71,2.05,'11111222,11111222,11111222' 
COMPS,ioos:station:USF.COMPS:ARP:1,2019-08-01T06:54:00,28.4330,-82.6670,10.0,0.13,304.0,0.58,'11111222,11111222,11111222' 
COMPS,ioos:station:USF.COMPS:ARP:1,2019-08-01T07:54:00,28.4330,-82.6670,10.0,0.84,88.59,1.46,'11111222,11111222,11111222' 
COMPS,ioos:station:USF.COMPS:ARP:1,2019-08-01T08:54:00,28.4330,-82.6670,10.0,2.0,104.7,3.42,'11111222,11111222,11111222' 
COMPS,ioos:station:USF.COMPS:ARP:1,2019-08-01T09:54:00,28.4330,-82.6670,10.0,2.01,111.27,2.84,'11111222,11111222,11111222' 
COMPS,ioos:station:USF.COMPS:ARP:1,2019-08-01T10:54:00,28.4330,-82.6670,10.0,1.29,108.07,2.15,'11111222,11111222,11111222' 
COMPS,ioos:station:USF.COMPS:ARP:1,2019-08-01T11:54:00,28.4330,-82.6670,10.0,1.15,83.82,1.76,'11111222,11111222,11111222' 
COMPS,ioos:station:USF.COMPS:ARP:1,2019-08-01T12:54:00,28.4330,-82.6670,10.0,1.57,94.99,2.74,'11111222,11111222,11111222' 
COMPS,ioos:station:USF.COMPS:ARP:1,2019-08-01T13:54:00,28.4330,-82.6670,10.0,1.44,108.01,2.45,'11111222,11111222,11111222' 
COMPS,ioos:station:USF.COMPS:ARP:1,2019-08-01T14:54:00,28.4330,-82.6670,10.0,1.87,111.85,4.31,'11111222,11111222,11111222' 
COMPS,ioos:station:USF.COMPS:ARP:1,2019-08-01T15:54:00,28.4330,-82.6670,10.0,2.56,314.45,5.39,'11111222,11111222,11111222' 
COMPS,ioos:station:USF.COMPS:ARP:1,2019-08-01T16:54:00,28.4330,-82.6670,10.0,1.55,322.58,2.74,'11111222,11111222,11111222' 
COMPS,ioos:station:USF.COMPS:ARP:1,2019-08-01T17:54:00,28.4330,-82.6670,10.0,2.22,321.47,4.31,'11111222,11111222,11111222' 
COMPS,ioos:station:USF.COMPS:ARP:1,2019-08-01T18:54:00,28.4330,-82.6670,10.0,2.28,322.28,4.99,'11111222,11111222,11111222' 
COMPS,ioos:station:USF.COMPS:ARP:1,2019-08-01T19:54:00,28.4330,-82.6670,10.0,1.18,346.91,3.33,'11111222,11111222,11111222' 
COMPS,ioos:station:USF.COMPS:ARP:1,2019-08-01T20:54:00,28.4330,-82.6670,10.0,3.03,93.59,3.82,'11111222,11111222,11111222' 
COMPS,ioos:station:USF.COMPS:ARP:1,2019-08-01T21:54:00,28.4330,-82.6670,10.0,2.92,101.95,4.11,'11111222,11111222,11111222' 
COMPS,ioos:station:USF.COMPS:ARP:1,2019-08-01T22:54:00,28.4330,-82.6670,10.0,1.38,99.03,2.45,'11111222,11111222,11111222' 
COMPS,ioos:station:USF.COMPS:ARP:1,2019-08-01T23:54:00,28.4330,-82.6670,10.0,2.16,80.9,3.23,'11111222,11111222,11111222' 
COMPS,ioos:station:USF.COMPS:ARP:1,2019-08-02T00:54:00,28.4330,-82.6670,10.0,2.42,67.16,3.33,'11111222,11111222,11111222' 
COMPS,ioos:station:USF.COMPS:ARP:1,2019-08-02T01:54:00,28.4330,-82.6670,10.0,2.25,73.39,3.62,'11111222,11111222,11111222' 
COMPS,ioos:station:USF.COMPS:ARP:1,2019-08-02T02:54:00,28.4330,-82.6670,10.0,2.15,111.86,3.33,'11111222,11111222,11111222' 
COMPS,ioos:station:USF.COMPS:ARP:1,2019-08-02T03:54:00,28.4330,-82.6670,10.0,2.14,92.33,3.42,'11111222,11111222,11111222' 
COMPS,ioos:station:USF.COMPS:ARP:1,2019-08-02T04:54:00,28.4330,-82.6670,10.0,1.52,104.2,2.05,'11111222,11111222,11111222' 
COMPS,ioos:station:USF.COMPS:ARP:1,2019-08-02T05:54:00,28.4330,-82.6670,10.0,1.21,74.38,1.95,'11111222,11111222,11111222' 
COMPS,ioos:station:USF.COMPS:ARP:1,2019-08-02T06:54:00,28.4330,-82.6670,10.0,0.84,62.64,1.37,'11111222,11111222,11111222' 
COMPS,ioos:station:USF.COMPS:ARP:1,2019-08-02T07:54:00,28.4330,-82.6670,10.0,1.86,78.57,2.54,'11111222,11111222,11111222' 
COMPS,ioos:station:USF.COMPS:ARP:1,2019-08-02T08:54:00,28.4330,-82.6670,10.0,1.18,66.15,2.15,'11111222,11111222,11111222' 
COMPS,ioos:station:USF.COMPS:ARP:1,2019-08-02T09:54:00,28.4330,-82.6670,10.0,0.87,62.15,1.27,'11111222,11111222,11111222' 
COMPS,ioos:station:USF.COMPS:ARP:1,2019-08-02T10:54:00,28.4330,-82.6670,10.0,1.26,61.1,1.86,'11111222,11111222,11111222' 
COMPS,ioos:station:USF.COMPS:ARP:1,2019-08-02T11:54:00,28.4330,-82.6670,10.0,1.74,75.17,2.15,'11111222,11111222,11111222' 
COMPS,ioos:station:USF.COMPS:ARP:1,2019-08-02T12:54:00,28.4330,-82.6670,10.0,2.35,67.96,3.03,'11111222,11111222,11111222' 
COMPS,ioos:station:USF.COMPS:ARP:1,2019-08-02T13:54:00,28.4330,-82.6670,10.0,2.25,110.19,3.72,'11111222,11111222,11111222' 
COMPS,ioos:station:USF.COMPS:ARP:1,2019-08-02T14:54:00,28.4330,-82.6670,10.0,2.11,94.37,3.82,'11111222,11111222,11111222' 
COMPS,ioos:station:USF.COMPS:ARP:1,2019-08-02T15:54:00,28.4330,-82.6670,10.0,2.05,95.06,3.33,'11111222,11111222,11111222' 
COMPS,ioos:station:USF.COMPS:ARP:1,2019-08-02T16:54:00,28.4330,-82.6670,10.0,2.89,309.92,3.72,'11111222,11111222,11111222' 
COMPS,ioos:station:USF.COMPS:ARP:1,2019-08-02T17:54:00,28.4330,-82.6670,10.0,0.97,0.27,2.93,'11111222,11111222,11111222' 
COMPS,ioos:station:USF.COMPS:ARP:1,2019-08-02T18:54:00,28.4330,-82.6670,10.0,1.44,343.27,3.23,'11111222,11111222,11111222' 
COMPS,ioos:station:USF.COMPS:ARP:1,2019-08-02T19:54:00,28.4330,-82.6670,10.0,1.57,332.41,3.91,'11111222,11111222,11111222' 
COMPS,ioos:station:USF.COMPS:ARP:1,2019-08-02T20:54:00,28.4330,-82.6670,10.0,0.69,63.47,2.54,'11111222,11111222,11111222' 
COMPS,ioos:station:USF.COMPS:ARP:1,2019-08-02T21:54:00,28.4330,-82.6670,10.0,4.48,77.39,7.83,'11111222,11111222,11111222' 
COMPS,ioos:station:USF.COMPS:ARP:1,2019-08-02T22:54:00,28.4330,-82.6670,10.0,3.17,79.69,4.6,'11111222,11111222,11111222' 
COMPS,ioos:station:USF.COMPS:ARP:1,2019-08-03T00:54:00,28.4330,-82.6670,10.0,2.7,104.76,3.82,'11111222,11111222,11111222' 
COMPS,ioos:station:USF.COMPS:ARP:1,2019-08-03T01:54:00,28.4330,-82.6670,10.0,1.93,94.85,3.13,'11111222,11111222,11111222' 
COMPS,ioos:station:USF.COMPS:ARP:1,2019-08-03T02:54:00,28.4330,-82.6670,10.0,1.17,99.64,2.15,'11111222,11111222,11111222' 
COMPS,ioos:station:USF.COMPS:ARP:1,2019-08-03T03:54:00,28.4330,-82.6670,10.0,1.25,98.86,2.05,'11111222,11111222,11111222' 
COMPS,ioos:station:USF.COMPS:ARP:1,2019-08-03T04:54:00,28.4330,-82.6670,10.0,0.96,74.96,1.46,'11111222,11111222,11111222' 
COMPS,ioos:station:USF.COMPS:ARP:1,2019-08-03T05:54:00,28.4330,-82.6670,10.0,0.86,52.04,1.27,'11111222,11111222,11111222' 
COMPS,ioos:station:USF.COMPS:ARP:1,2019-08-03T06:54:00,28.4330,-82.6670,10.0,0.98,65.57,1.37,'11111222,11111222,11111222' 
COMPS,ioos:station:USF.COMPS:ARP:1,2019-08-03T07:54:00,28.4330,-82.6670,10.0,0.47,98.09,0.78,'11111222,11111222,11111222' 
COMPS,ioos:station:USF.COMPS:ARP:1,2019-08-03T08:54:00,28.4330,-82.6670,10.0,0.35,98.0,0.78,'11111222,11111222,11111222' 
COMPS,ioos:station:USF.COMPS:ARP:1,2019-08-03T09:54:00,28.4330,-82.6670,10.0,0.8,71.1,1.17,'11111222,11111222,11111222' 
COMPS,ioos:station:USF.COMPS:ARP:1,2019-08-03T10:54:00,28.4330,-82.6670,10.0,0.69,90.88,1.27,'11111222,11111222,11111222' 
COMPS,ioos:station:USF.COMPS:ARP:1,2019-08-03T11:54:00,28.4330,-82.6670,10.0,1.42,92.62,2.05,'11111222,11111222,11111222' 
COMPS,ioos:station:USF.COMPS:ARP:1,2019-08-03T12:54:00,28.4330,-82.6670,10.0,2.09,109.45,2.84,'11111222,11111222,11111222' 
COMPS,ioos:station:USF.COMPS:ARP:1,2019-08-03T13:54:00,28.4330,-82.6670,10.0,1.34,100.7,2.25,'11111222,11111222,11111222' 
COMPS,ioos:station:USF.COMPS:ARP:1,2019-08-03T14:54:00,28.4330,-82.6670,10.0,0.79,155.45,2.93,'11111222,11111222,11111222' 
COMPS,ioos:station:USF.COMPS:ARP:1,2019-08-03T15:54:00,28.4330,-82.6670,10.0,2.57,298.98,3.23,'11111222,11111222,11111222' 
COMPS,ioos:station:USF.COMPS:ARP:1,2019-08-03T16:54:00,28.4330,-82.6670,10.0,1.71,307.19,2.45,'11111222,11111222,11111222' 
COMPS,ioos:station:USF.COMPS:ARP:1,2019-08-03T17:54:00,28.4330,-82.6670,10.0,2.75,308.17,3.91,'11111222,11111222,11111222' 
COMPS,ioos:station:USF.COMPS:ARP:1,2019-08-03T18:54:00,28.4330,-82.6670,10.0,2.0,310.17,3.42,'11111222,11111222,11111222' 
COMPS,ioos:station:USF.COMPS:ARP:1,2019-08-03T19:54:00,28.4330,-82.6670,10.0,2.31,309.28,3.82,'11111222,11111222,11111222' 
COMPS,ioos:station:USF.COMPS:ARP:1,2019-08-03T20:54:00,28.4330,-82.6670,10.0,2.21,316.27,3.72,'11111222,11111222,11111222' 
COMPS,ioos:station:USF.COMPS:ARP:1,2019-08-03T21:54:00,28.4330,-82.6670,10.0,3.07,308.47,4.41,'11111222,11111222,11111222' 
COMPS,ioos:station:USF.COMPS:ARP:1,2019-08-03T22:54:00,28.4330,-82.6670,10.0,2.16,312.46,3.03,'11111222,11111222,11111222' 
COMPS,ioos:station:USF.COMPS:ARP:1,2019-08-03T23:54:00,28.4330,-82.6670,10.0,1.32,315.01,1.86,'11111222,11111222,11111222' 
COMPS,ioos:station:USF.COMPS:ARP:1,2019-08-04T00:54:00,28.4330,-82.6670,10.0,1.61,296.45,2.35,'11111222,11111222,11111222' 
COMPS,ioos:station:USF.COMPS:ARP:1,2019-08-04T01:54:00,28.4330,-82.6670,10.0,1.56,310.74,2.64,'11111222,11111222,11111222' 
COMPS,ioos:station:USF.COMPS:ARP:1,2019-08-04T02:54:00,28.4330,-82.6670,10.0,0.58,57.53,1.07,'11111222,11111222,11111222' 
COMPS,ioos:station:USF.COMPS:ARP:1,2019-08-04T03:54:00,28.4330,-82.6670,10.0,0.41,69.96,0.68,'11111222,11111222,11111222' 
COMPS,ioos:station:USF.COMPS:ARP:1,2019-08-04T04:54:00,28.4330,-82.6670,10.0,0.58,94.06,0.78,'11111222,11111222,11111222' 
COMPS,ioos:station:USF.COMPS:ARP:1,2019-08-04T05:54:00,28.4330,-82.6670,10.0,0.82,106.76,1.17,'11111222,11111222,11111222' 
COMPS,ioos:station:USF.COMPS:ARP:1,2019-08-04T06:54:00,28.4330,-82.6670,10.0,0.55,108.73,1.27,'11111222,11111222,11111222' 
COMPS,ioos:station:USF.COMPS:ARP:1,2019-08-04T07:54:00,28.4330,-82.6670,10.0,0.04,210.77,0.68,'11111222,11111222,11111222' 
COMPS,ioos:station:USF.COMPS:ARP:1,2019-08-04T08:54:00,28.4330,-82.6670,10.0,0.31,187.25,1.17,'11111222,11111222,11111222' 
COMPS,ioos:station:USF.COMPS:ARP:1,2019-08-04T09:54:00,28.4330,-82.6670,10.0,0.11,90.89,0.39,'11111222,11111222,11111222' 
COMPS,ioos:station:USF.COMPS:ARP:1,2019-08-04T10:54:00,28.4330,-82.6670,10.0,0.43,143.12,0.97,'11111222,11111222,11111222' 
COMPS,ioos:station:USF.COMPS:ARP:1,2019-08-04T11:54:00,28.4330,-82.6670,10.0,0.2,159.54,0.58,'11111222,11111222,11111222' 
COMPS,ioos:station:USF.COMPS:ARP:1,2019-08-04T12:54:00,28.4330,-82.6670,10.0,0.86,197.71,1.66,'11111222,11111222,11111222' 
COMPS,ioos:station:USF.COMPS:ARP:1,2019-08-04T13:54:00,28.4330,-82.6670,10.0,1.65,305.74,2.74,'11111222,11111222,11111222' 
COMPS,ioos:station:USF.COMPS:ARP:1,2019-08-04T14:54:00,28.4330,-82.6670,10.0,3.0,288.63,4.01,'11111222,11111222,11111222' 
COMPS,ioos:station:USF.COMPS:ARP:1,2019-08-04T15:54:00,28.4330,-82.6670,10.0,2.76,283.11,3.52,'11111222,11111222,11111222' 
COMPS,ioos:station:USF.COMPS:ARP:1,2019-08-04T16:54:00,28.4330,-82.6670,10.0,2.95,284.64,4.5,'11111222,11111222,11111222' 
COMPS,ioos:station:USF.COMPS:ARP:1,2019-08-04T17:54:00,28.4330,-82.6670,10.0,3.26,305.25,4.21,'11111222,11111222,11111222' 
COMPS,ioos:station:USF.COMPS:ARP:1,2019-08-04T18:54:00,28.4330,-82.6670,10.0,4.16,296.22,5.19,'11111222,11111222,11111222' 
COMPS,ioos:station:USF.COMPS:ARP:1,2019-08-04T19:54:00,28.4330,-82.6670,10.0,3.66,287.06,4.8,'11111222,11111222,11111222' 
COMPS,ioos:station:USF.COMPS:ARP:1,2019-08-04T20:54:00,28.4330,-82.6670,10.0,3.14,301.93,4.21,'11111222,11111222,11111222' 
COMPS,ioos:station:USF.COMPS:ARP:1,2019-08-04T21:54:00,28.4330,-82.6670,10.0,2.23,299.63,3.62,'11111222,11111222,11111222' 
COMPS,ioos:station:USF.COMPS:ARP:1,2019-08-04T22:54:00,28.4330,-82.6670,10.0,1.93,291.51,2.84,'11111222,11111222,11111222' 
COMPS,ioos:station:USF.COMPS:ARP:1,2019-08-04T23:54:00,28.4330,-82.6670,10.0,3.04,295.66,4.11,'11111222,11111222,11111222' 
COMPS,ioos:station:USF.COMPS:ARP:1,2019-08-05T00:54:00,28.4330,-82.6670,10.0,2.7,277.75,3.91,'11111222,11111222,11111222' 
COMPS,ioos:station:USF.COMPS:ARP:1,2019-08-05T01:54:00,28.4330,-82.6670,10.0,1.12,248.4,2.05,'11111222,11111222,11111222' 
COMPS,ioos:station:USF.COMPS:ARP:1,2019-08-05T02:54:00,28.4330,-82.6670,10.0,1.19,252.8,1.56,'11111222,11111222,11111222' 
COMPS,ioos:station:USF.COMPS:ARP:1,2019-08-05T03:54:00,28.4330,-82.6670,10.0,1.96,258.62,3.13,'11111222,11111222,11111222' 
COMPS,ioos:station:USF.COMPS:ARP:1,2019-08-05T04:54:00,28.4330,-82.6670,10.0,1.94,257.08,2.64,'11111222,11111222,11111222' 
COMPS,ioos:station:USF.COMPS:ARP:1,2019-08-05T05:54:00,28.4330,-82.6670,10.0,2.51,270.84,3.72,'11111222,11111222,11111222' 
COMPS,ioos:station:USF.COMPS:ARP:1,2019-08-05T06:54:00,28.4330,-82.6670,10.0,2.55,268.55,3.33,'11111222,11111222,11111222' 
COMPS,ioos:station:USF.COMPS:ARP:1,2019-08-05T07:54:00,28.4330,-82.6670,10.0,1.67,273.88,2.64,'11111222,11111222,11111222' 
COMPS,ioos:station:USF.COMPS:ARP:1,2019-08-05T08:54:00,28.4330,-82.6670,10.0,0.71,143.33,1.56,'11111222,11111222,11111222' 
COMPS,ioos:station:USF.COMPS:ARP:1,2019-08-05T09:54:00,28.4330,-82.6670,10.0,0.39,164.72,1.07,'11111222,11111222,11111222' 
COMPS,ioos:station:USF.COMPS:ARP:1,2019-08-05T10:54:00,28.4330,-82.6670,10.0,1.28,166.71,2.54,'11111222,11111222,11111222' 
COMPS,ioos:station:USF.COMPS:ARP:1,2019-08-05T11:54:00,28.4330,-82.6670,10.0,0.57,199.84,1.86,'11111222,11111222,11111222' 
COMPS,ioos:station:USF.COMPS:ARP:1,2019-08-05T12:54:00,28.4330,-82.6670,10.0,0.54,241.42,1.56,'11111222,11111222,11111222' 
COMPS,ioos:station:USF.COMPS:ARP:1,2019-08-05T13:54:00,28.4330,-82.6670,10.0,0.54,121.15,1.37,'11111222,11111222,11111222' 
COMPS,ioos:station:USF.COMPS:ARP:1,2019-08-05T14:54:00,28.4330,-82.6670,10.0,2.31,292.3,3.72,'11111222,11111222,11111222' 
COMPS,ioos:station:USF.COMPS:ARP:1,2019-08-05T15:54:00,28.4330,-82.6670,10.0,2.22,267.22,3.72,'11111222,11111222,11111222' 
COMPS,ioos:station:USF.COMPS:ARP:1,2019-08-05T16:54:00,28.4330,-82.6670,10.0,1.51,325.18,2.84,'11111222,11111222,11111222' 
COMPS,ioos:station:USF.COMPS:ARP:1,2019-08-05T17:54:00,28.4330,-82.6670,10.0,2.67,302.17,3.82,'11111222,11111222,11111222' 
COMPS,ioos:station:USF.COMPS:ARP:1,2019-08-05T18:54:00,28.4330,-82.6670,10.0,3.7,300.35,4.99,'11111222,11111222,11111222' 
COMPS,ioos:station:USF.COMPS:ARP:1,2019-08-05T19:54:00,28.4330,-82.6670,10.0,3.41,290.43,4.5,'11111222,11111222,11111222' 
COMPS,ioos:station:USF.COMPS:ARP:1,2019-08-05T20:54:00,28.4330,-82.6670,10.0,4.17,301.19,5.58,'11111222,11111222,11111222' 
COMPS,ioos:station:USF.COMPS:ARP:1,2019-08-05T21:54:00,28.4330,-82.6670,10.0,2.77,284.27,3.72,'11111222,11111222,11111222' 
COMPS,ioos:station:USF.COMPS:ARP:1,2019-08-05T22:54:00,28.4330,-82.6670,10.0,1.46,282.69,2.25,'11111222,11111222,11111222' 
COMPS,ioos:station:USF.COMPS:ARP:1,2019-08-05T23:54:00,28.4330,-82.6670,10.0,3.05,295.29,4.21,'11111222,11111222,11111222' 
COMPS,ioos:station:USF.COMPS:ARP:1,2019-08-06T00:54:00,28.4330,-82.6670,10.0,0.27,80.39,0.68,'11111222,11111222,11111222' 
COMPS,ioos:station:USF.COMPS:ARP:1,2019-08-06T01:54:00,28.4330,-82.6670,10.0,0.3,87.04,0.58,'11111222,11111222,11111222' 
COMPS,ioos:station:USF.COMPS:ARP:1,2019-08-06T02:54:00,28.4330,-82.6670,10.0,0.57,122.68,1.27,'11111222,11111222,11111222' 
COMPS,ioos:station:USF.COMPS:ARP:1,2019-08-06T03:54:00,28.4330,-82.6670,10.0,1.5,163.3,2.64,'11111222,11111222,11111222' 
COMPS,ioos:station:USF.COMPS:ARP:1,2019-08-06T04:54:00,28.4330,-82.6670,10.0,0.75,126.52,1.76,'11111222,11111222,11111222' 
COMPS,ioos:station:USF.COMPS:ARP:1,2019-08-06T05:54:00,28.4330,-82.6670,10.0,1.19,154.4,1.95,'11111222,11111222,11111222' 
COMPS,ioos:station:USF.COMPS:ARP:1,2019-08-06T06:54:00,28.4330,-82.6670,10.0,0.92,156.32,2.15,'11111222,11111222,11111222' 
COMPS,ioos:station:USF.COMPS:ARP:1,2019-08-06T07:54:00,28.4330,-82.6670,10.0,0.33,127.42,0.88,'11111222,11111222,11111222' 
COMPS,ioos:station:USF.COMPS:ARP:1,2019-08-06T08:54:00,28.4330,-82.6670,10.0,0.8,114.24,1.46,'11111222,11111222,11111222' 
COMPS,ioos:station:USF.COMPS:ARP:1,2019-08-06T09:54:00,28.4330,-82.6670,10.0,0.76,111.99,1.56,'11111222,11111222,11111222' 
COMPS,ioos:station:USF.COMPS:ARP:1,2019-08-06T10:54:00,28.4330,-82.6670,10.0,0.93,107.71,1.95,'11111222,11111222,11111222' 
COMPS,ioos:station:USF.COMPS:ARP:1,2019-08-06T11:54:00,28.4330,-82.6670,10.0,0.51,127.1,1.17,'11111222,11111222,11111222' 
COMPS,ioos:station:USF.COMPS:ARP:1,2019-08-06T12:54:00,28.4330,-82.6670,10.0,0.75,142.2,1.56,'11111222,11111222,11111222' 
COMPS,ioos:station:USF.COMPS:ARP:1,2019-08-06T13:54:00,28.4330,-82.6670,10.0,1.76,315.72,3.62,'11111222,11111222,11111222' 
COMPS,ioos:station:USF.COMPS:ARP:1,2019-08-06T14:54:00,28.4330,-82.6670,10.0,0.07,118.4,0.29,'11111222,11111222,11111222' 
COMPS,ioos:station:USF.COMPS:ARP:1,2019-08-06T15:54:00,28.4330,-82.6670,10.0,7.57,299.35,10.48,'11111222,11111222,11111222' 
COMPS,ioos:station:USF.COMPS:ARP:1,2019-08-06T16:54:00,28.4330,-82.6670,10.0,0.71,48.35,1.27,'11111222,11111222,11111222' 
COMPS,ioos:station:USF.COMPS:ARP:1,2019-08-06T17:54:00,28.4330,-82.6670,10.0,1.62,300.98,2.15,'11111222,11111222,11111222' 
COMPS,ioos:station:USF.COMPS:ARP:1,2019-08-06T18:54:00,28.4330,-82.6670,10.0,3.47,301.18,4.6,'11111222,11111222,11111222' 
COMPS,ioos:station:USF.COMPS:ARP:1,2019-08-06T19:54:00,28.4330,-82.6670,10.0,3.95,299.19,6.95,'11111222,11111222,11111222' 
COMPS,ioos:station:USF.COMPS:ARP:1,2019-08-06T20:54:00,28.4330,-82.6670,10.0,3.72,286.62,4.7,'11111222,11111222,11111222' 
COMPS,ioos:station:USF.COMPS:ARP:1,2019-08-06T21:54:00,28.4330,-82.6670,10.0,3.05,286.28,4.11,'11111222,11111222,11111222' 
COMPS,ioos:station:USF.COMPS:ARP:1,2019-08-06T22:54:00,28.4330,-82.6670,10.0,2.13,268.66,2.93,'11111222,11111222,11111222' 
COMPS,ioos:station:USF.COMPS:ARP:1,2019-08-06T23:54:00,28.4330,-82.6670,10.0,0.7,295.7,1.17,'11111222,11111222,11111222' 
COMPS,ioos:station:USF.COMPS:ARP:1,2019-08-07T00:54:00,28.4330,-82.6670,10.0,0.43,178.3,1.07,'11111222,11111222,11111222' 
COMPS,ioos:station:USF.COMPS:ARP:1,2019-08-07T01:54:00,28.4330,-82.6670,10.0,0.66,188.24,1.37,'11111222,11111222,11111222' 
COMPS,ioos:station:USF.COMPS:ARP:1,2019-08-07T02:54:00,28.4330,-82.6670,10.0,0.54,223.21,1.17,'11111222,11111222,11111222' 
COMPS,ioos:station:USF.COMPS:ARP:1,2019-08-07T03:54:00,28.4330,-82.6670,10.0,0.28,169.26,1.27,'11111222,11111222,11111222' 
COMPS,ioos:station:USF.COMPS:ARP:1,2019-08-07T04:54:00,28.4330,-82.6670,10.0,1.05,144.82,2.45,'11111222,11111222,11111222' 
COMPS,ioos:station:USF.COMPS:ARP:1,2019-08-07T05:54:00,28.4330,-82.6670,10.0,1.26,153.88,2.35,'11111222,11111222,11111222' 
COMPS,ioos:station:USF.COMPS:ARP:1,2019-08-07T06:54:00,28.4330,-82.6670,10.0,1.34,159.2,2.54,'11111222,11111222,11111222' 
COMPS,ioos:station:USF.COMPS:ARP:1,2019-08-07T07:54:00,28.4330,-82.6670,10.0,1.29,174.67,2.45,'11111222,11111222,11111222' 
COMPS,ioos:station:USF.COMPS:ARP:1,2019-08-07T08:54:00,28.4330,-82.6670,10.0,0.59,202.52,2.35,'11111222,11111222,11111222' 
COMPS,ioos:station:USF.COMPS:ARP:1,2019-08-07T09:54:00,28.4330,-82.6670,10.0,6.17,274.93,8.23,'11111222,11111222,11111222' 
COMPS,ioos:station:USF.COMPS:ARP:1,2019-08-07T10:54:00,28.4330,-82.6670,10.0,6.06,283.8,10.38,'11111222,11111222,11111222' 
COMPS,ioos:station:USF.COMPS:ARP:1,2019-08-07T11:54:00,28.4330,-82.6670,10.0,3.32,318.01,6.56,'11111222,11111222,11111222' 
COMPS,ioos:station:USF.COMPS:ARP:1,2019-08-07T12:54:00,28.4330,-82.6670,10.0,1.55,228.95,2.64,'11111222,11111222,11111222' 
COMPS,ioos:station:USF.COMPS:ARP:1,2019-08-07T13:54:00,28.4330,-82.6670,10.0,1.07,226.24,1.86,'11111222,11111222,11111222' 
COMPS,ioos:station:USF.COMPS:ARP:1,2019-08-07T14:54:00,28.4330,-82.6670,10.0,4.32,287.52,5.58,'11111222,11111222,11111222' 
COMPS,ioos:station:USF.COMPS:ARP:1,2019-08-07T15:54:00,28.4330,-82.6670,10.0,4.85,292.0,6.85,'11111222,11111222,11111222' 
COMPS,ioos:station:USF.COMPS:ARP:1,2019-08-07T16:54:00,28.4330,-82.6670,10.0,4.52,291.6,5.68,'11111222,11111222,11111222' 
COMPS,ioos:station:USF.COMPS:ARP:1,2019-08-07T17:54:00,28.4330,-82.6670,10.0,5.51,287.35,8.33,'11111222,11111222,11111222' 
COMPS,ioos:station:USF.COMPS:ARP:1,2019-08-07T18:54:00,28.4330,-82.6670,10.0,4.67,301.52,6.27,'11111222,11111222,11111222' 
COMPS,ioos:station:USF.COMPS:ARP:1,2019-08-07T19:54:00,28.4330,-82.6670,10.0,4.34,302.86,5.29,'11111222,11111222,11111222' 
COMPS,ioos:station:USF.COMPS:ARP:1,2019-08-07T20:54:00,28.4330,-82.6670,10.0,1.54,187.17,2.64,'11111222,11111222,11111222' 
COMPS,ioos:station:USF.COMPS:ARP:1,2019-08-07T21:54:00,28.4330,-82.6670,10.0,2.27,270.76,3.82,'11111222,11111222,11111222' 
COMPS,ioos:station:USF.COMPS:ARP:1,2019-08-07T22:54:00,28.4330,-82.6670,10.0,2.74,279.79,4.31,'11111222,11111222,11111222' 
COMPS,ioos:station:USF.COMPS:ARP:1,2019-08-07T23:54:00,28.4330,-82.6670,10.0,1.18,206.94,2.25,'11111222,11111222,11111222' 
COMPS,ioos:station:USF.COMPS:ARP:1,2019-08-08T00:54:00,28.4330,-82.6670,10.0,1.24,173.16,2.64,'11111222,11111222,11111222' 
COMPS,ioos:station:USF.COMPS:ARP:1,2019-08-08T01:54:00,28.4330,-82.6670,10.0,0.9,166.71,1.95,'11111222,11111222,11111222' 
COMPS,ioos:station:USF.COMPS:ARP:1,2019-08-08T02:54:00,28.4330,-82.6670,10.0,0.48,190.42,1.27,'11111222,11111222,11111222' 
COMPS,ioos:station:USF.COMPS:ARP:1,2019-08-08T05:54:00,28.4330,-82.6670,10.0,4.46,281.66,6.85,'11111222,11111222,11111222' 
COMPS,ioos:station:USF.COMPS:ARP:1,2019-08-08T06:54:00,28.4330,-82.6670,10.0,3.34,271.73,5.29,'11111222,11111222,11111222' 
COMPS,ioos:station:USF.COMPS:ARP:1,2019-08-08T07:54:00,28.4330,-82.6670,10.0,3.91,275.4,5.58,'11111222,11111222,11111222' 
COMPS,ioos:station:USF.COMPS:ARP:1,2019-08-08T08:54:00,28.4330,-82.6670,10.0,0.62,145.9,1.27,'11111222,11111222,11111222' 
COMPS,ioos:station:USF.COMPS:ARP:1,2019-08-08T09:54:00,28.4330,-82.6670,10.0,1.56,250.92,2.05,'11111222,11111222,11111222' 
COMPS,ioos:station:USF.COMPS:ARP:1,2019-08-08T10:54:00,28.4330,-82.6670,10.0,0.07,260.89,0.49,'11111222,11111222,11111222' 
COMPS,ioos:station:USF.COMPS:ARP:1,2019-08-08T11:54:00,28.4330,-82.6670,10.0,0.68,122.09,1.27,'11111222,11111222,11111222' 
COMPS,ioos:station:USF.COMPS:ARP:1,2019-08-08T12:54:00,28.4330,-82.6670,10.0,2.93,275.69,4.41,'11111222,11111222,11111222' 
COMPS,ioos:station:USF.COMPS:ARP:1,2019-08-08T13:54:00,28.4330,-82.6670,10.0,4.0,290.06,4.9,'11111222,11111222,11111222' 
COMPS,ioos:station:USF.COMPS:ARP:1,2019-08-08T14:54:00,28.4330,-82.6670,10.0,4.82,290.25,6.17,'11111222,11111222,11111222' 
COMPS,ioos:station:USF.COMPS:ARP:1,2019-08-08T15:54:00,28.4330,-82.6670,10.0,4.04,280.63,5.39,'11111222,11111222,11111222' 
COMPS,ioos:station:USF.COMPS:ARP:1,2019-08-08T16:54:00,28.4330,-82.6670,10.0,4.1,290.74,5.29,'11111222,11111222,11111222' 
COMPS,ioos:station:USF.COMPS:ARP:1,2019-08-08T17:54:00,28.4330,-82.6670,10.0,3.85,290.11,5.87,'11111222,11111222,11111222' 
COMPS,ioos:station:USF.COMPS:ARP:1,2019-08-08T18:54:00,28.4330,-82.6670,10.0,5.61,272.7,9.6,'11111222,11111222,11111222' 
COMPS,ioos:station:USF.COMPS:ARP:1,2019-08-08T19:54:00,28.4330,-82.6670,10.0,5.02,286.36,7.15,'11111222,11111222,11111222' 
COMPS,ioos:station:USF.COMPS:ARP:1,2019-08-08T20:54:00,28.4330,-82.6670,10.0,5.29,306.14,6.66,'11111222,11111222,11111222' 
COMPS,ioos:station:USF.COMPS:ARP:1,2019-08-08T21:54:00,28.4330,-82.6670,10.0,4.29,297.68,5.97,'11111222,11111222,11111222' 
COMPS,ioos:station:USF.COMPS:ARP:1,2019-08-08T22:54:00,28.4330,-82.6670,10.0,3.61,294.32,4.7,'11111222,11111222,11111222' 
COMPS,ioos:station:USF.COMPS:ARP:1,2019-08-08T23:54:00,28.4330,-82.6670,10.0,3.16,268.45,4.5,'11111222,11111222,11111222' 
COMPS,ioos:station:USF.COMPS:ARP:1,2019-08-09T00:54:00,28.4330,-82.6670,10.0,3.66,268.14,5.19,'11111222,11111222,11111222' 
COMPS,ioos:station:USF.COMPS:ARP:1,2019-08-09T01:54:00,28.4330,-82.6670,10.0,3.16,264.34,4.8,'11111222,11111222,11111222' 
COMPS,ioos:station:USF.COMPS:ARP:1,2019-08-09T02:54:00,28.4330,-82.6670,10.0,2.58,261.79,3.72,'11111222,11111222,11111222' 
COMPS,ioos:station:USF.COMPS:ARP:1,2019-08-09T03:54:00,28.4330,-82.6670,10.0,3.74,275.65,4.99,'11111222,11111222,11111222' 